Home   Weather   Danmarkshavn   Past weeks
Flag for Greenland

Past Weather in Danmarkshavn, Greenland — Yesterday and Last 2 Weeks

Now
22 °F

Low clouds.


Feels Like: 18 °F
Forecast: 28 / 22 °F
Wind: 3 mph from Northeast

Location: Danmarkshavn

Current Time: May 27, 2019 at 5:27:46 am

Latest Report: May 27, 2019 at 4:00 am


Visibility: 31 mi

Pressure: 30.17 "Hg

Humidity: 89%

Dew Point: 20 °F

Location of DanmarkshavnLocation

Past Weather in Danmarkshavn — Graph

°F

Danmarkshavn Temperature Yesterday

Maximum temperature yesterday: 26 °F (at 4:00 pm)
Minimum temperature yesterday: 19 °F (at 4:00 am)
Average temperature yesterday: 23 °F

High & Low Weather Summary for the Past Weeks

 TemperatureHumidityPressure
High31 °F (May 20, 3:00 pm)97% (May 25, 12:00 am)30.60 "Hg (May 25, 12:00 am)
Low8 °F (May 14, 6:00 am)65% (May 14, 11:00 pm)30.11 "Hg (May 26, 4:00 pm)
Average21 °F86%30.35 "Hg
* Reported May 12 3:00 am — May 27 3:00 am, Danmarkshavn. Weather by CustomWeather, © 2019

Note: Actual official high and low records may vary slightly from our data, if they occured in-between our weather recording intervals... More about our weather records

Advertising

Danmarkshavn Weather History for the Previous 24 Hours

Scroll right to see more
 ConditionsComfort  
Time TempWeatherWind HumidityBarometerVisibility
3:00 am
Mon, May 27
23 °FLow clouds.6 mph88%30.17 "Hg31 mi
2:00 am22 °FLow clouds.6 mph86%30.18 "Hg31 mi
1:00 am23 °FOvercast.8 mph85%30.18 "Hg31 mi
12:00 am24 °FScattered clouds.8 mph82%30.17 "Hg31 mi
11:00 pm
Sun, May 26
24 °FPartly sunny.9 mph80%30.16 "Hg31 mi
10:00 pm24 °FOvercast.8 mph82%30.16 "Hg31 mi
9:00 pm24 °FOvercast.9 mph83%30.15 "Hg31 mi
8:00 pm24 °FLow clouds.9 mph86%30.15 "Hg31 mi
7:00 pm25 °FPartly sunny.10 mph83%30.14 "Hg31 mi
6:00 pm25 °FLow clouds.12 mph86%30.13 "Hg31 mi
5:00 pm25 °FPartly sunny.13 mph92%30.12 "Hg28 mi
4:00 pm26 °FPassing clouds.10 mph92%30.11 "Hg31 mi
3:00 pm24 °FLow clouds.12 mph91%30.12 "Hg31 mi
2:00 pm24 °FLow clouds.9 mph92%30.12 "Hg16 mi
1:00 pm23 °FFog.10 mph91%30.12 "Hg2 mi
12:00 pm23 °FLow clouds.8 mph91%30.12 "Hg7 mi
11:00 am23 °FLow clouds.5 mph90%30.12 "Hg2 mi
10:00 am22 °FIce fog.1 mph90%30.13 "Hg1 mi
9:00 am21 °FIce fog.2 mph91%30.14 "Hg0 mi
8:00 am20 °FIce fog.3 mph90%30.15 "Hg1 mi
7:00 am20 °FIce fog.5 mph92%30.15 "Hg1 mi
6:00 am20 °FIce fog.No wind93%30.16 "Hg0 mi
5:00 am21 °FLow clouds.3 mph92%30.17 "Hg1 mi
Weather by CustomWeather, © 2019

See weather overview